カタログに戻る

DELTA 1 DEB

運用中LEO
NORAD 7043·DEBRIS·🇺🇸 United States

打ち上げ Nov 6, 1973 から Vandenberg Space Force Base

Loading…

次のパス (今後24時間)

TLE

最新Source: Space-Track

元期: Sep 13, 2026, 18:32 UTC

1 07043U 73086AK  26256.77281088 -.00000118  00000-0 -24883-3 0  9990
2 07043 102.1179 328.3518 0216508  60.4529  61.1399 12.85398610475968

AllMySatでDELTA 1 DEBをリアルタイム追跡

Download on the App Store